Location: Tel Aviv
(32.0670°N, 34.7670°E)
Time: 06:03:20
(UTC+03:00)

METEOR M2 - Visible Passes

Search period start: 29 March 2023 00:00
Search period end: 08 April 2023 00:00
Orbit: 819 x 826 km, 98.4° (Epoch: 26 March)

Date Brightness Start Highest point End Pass type
(mag) Time Alt. Az. Time Alt. Az. Time Alt. Az.
29 Mar ? 19:41:05 10° SW 19:43:58 15° W 19:46:53 10° WNW visible
30 Mar ? 19:19:36 10° SSW 19:23:50 24° W 19:28:05 10° NW visible
31 Mar ? 06:01:55 10° NE 06:05:56 21° E 06:09:55 10° SE visible
01 Apr ? 05:43:23 10° ENE 05:45:47 13° E 05:48:10 10° ESE visible
03 Apr ? 19:41:25 10° SW 19:44:13 14° W 19:47:01 10° WNW visible
04 Apr ? 19:19:53 10° SSW 19:24:05 23° W 19:28:17 10° NW visible
05 Apr ? 06:02:07 10° NE 06:06:11 22° E 06:10:13 10° SE visible
06 Apr ? 05:43:31 10° ENE 05:46:01 13° E 05:48:31 10° ESE visible
